TimeAKDT,TemperatureF,Dew PointF,Humidity,Sea Level PressureIn,VisibilityMPH,Wind Direction,Wind SpeedMPH,Gust SpeedMPH,PrecipitationIn,Events,Conditions,WindDirDegrees,DateUTC
12:01 AM,57.9,53.1,84,29.74,10.0,Calm,Calm,-,N/A,,Clear,0,2013-07-08 08:01:00
1:01 AM,55.9,52.0,87,29.73,10.0,Calm,Calm,-,N/A,,Clear,0,2013-07-08 09:01:00
2:01 AM,54.0,52.0,93,29.73,10.0,Calm,Calm,-,N/A,,Overcast,0,2013-07-08 10:01:00
3:01 AM,54.0,52.0,93,29.73,10.0,Calm,Calm,-,N/A,,Mostly Cloudy,0,2013-07-08 11:01:00
4:01 AM,54.0,53.1,97,29.73,10.0,Calm,Calm,-,N/A,,Mostly Cloudy,0,2013-07-08 12:01:00
5:01 AM,52.0,51.1,97,29.73,10.0,Calm,Calm,-,N/A,,Clear,0,2013-07-08 13:01:00
6:01 AM,51.1,50.0,96,29.73,10.0,West,3.5,-,N/A,,Scattered Clouds,270,2013-07-08 14:01:00
7:01 AM,53.1,51.1,93,29.72,10.0,Calm,Calm,-,N/A,,Clear,0,2013-07-08 15:01:00
8:01 AM,55.0,52.0,89,29.72,10.0,Calm,Calm,-,N/A,,Clear,0,2013-07-08 16:01:00
9:01 AM,57.0,52.0,83,29.73,10.0,SW,4.6,-,N/A,,Clear,230,2013-07-08 17:01:00
10:01 AM,61.0,52.0,72,29.74,10.0,Calm,Calm,-,N/A,,Clear,0,2013-07-08 18:01:00
11:01 AM,63.0,50.0,63,29.75,10.0,SSE,4.6,-,N/A,,Clear,160,2013-07-08 19:01:00
12:01 PM,64.9,48.0,54,29.75,10.0,ESE,5.8,-,N/A,,Clear,110,2013-07-08 20:01:00
1:01 PM,68.0,48.0,49,29.75,10.0,East,5.8,-,N/A,,Clear,80,2013-07-08 21:01:00
2:01 PM,68.0,48.0,49,29.76,10.0,East,5.8,-,N/A,,Clear,100,2013-07-08 22:01:00
3:01 PM,69.1,48.0,47,29.76,10.0,Variable,5.8,-,N/A,,Clear,0,2013-07-08 23:01:00
4:01 PM,68.0,48.0,49,29.77,10.0,East,6.9,-,N/A,,Partly Cloudy,100,2013-07-09 00:01:00
5:01 PM,70.0,48.0,46,29.78,9.0,South,3.5,-,N/A,,Partly Cloudy,170,2013-07-09 01:01:00
6:01 PM,66.9,54.0,63,29.78,10.0,WSW,11.5,-,N/A,,Partly Cloudy,240,2013-07-09 02:01:00
7:01 PM,66.0,55.0,68,29.79,10.0,West,10.4,-,N/A,,Scattered Clouds,260,2013-07-09 03:01:00
8:01 PM,66.9,55.9,68,29.80,10.0,SSW,5.8,-,N/A,,Overcast,200,2013-07-09 04:01:00
9:01 PM,66.9,55.0,66,29.81,10.0,Calm,Calm,-,N/A,,Partly Cloudy,0,2013-07-09 05:01:00
10:01 PM,64.0,55.9,75,29.82,10.0,SSW,3.5,-,N/A,,Clear,200,2013-07-09 06:01:00
11:01 PM,63.0,46.9,56,29.84,10.0,ENE,5.8,-,N/A,,Clear,60,2013-07-09 07:01:00